Printer-friendly version

IAU Minor Planet Center

Minor Planet Center

MPEC 2001-T23: S/2000 S 8, S/2000 S 10

The following Minor Planet Electronic Circular may be linked-to from your own Web pages, but must not otherwise be redistributed electronically.


Read MPEC 2001-T22 Read MPEC 2001-T24


M.P.E.C. 2001-T23                                Issued 2001 Oct. 8, 14:41 UT

     The Minor Planet Electronic Circulars contain information on unusual
         minor planets and routine data on comets.  They are published
   on behalf of Commission 20 of the International Astronomical Union by the
          Minor Planet Center, Smithsonian Astrophysical Observatory,
                          Cambridge, MA 02138, U.S.A.

             Prepared using the Tamkin Foundation Computer Network

                              MPC@CFA.HARVARD.EDU
          URL http://cfa-www.harvard.edu/iau/mpc.html  ISSN 1523-6714

                            S/2000 S 8, S/2000 S 10

                      Revision to MPEC 2000-Y14, 2000-Y15

Observations:
    SK00S080  C2001 09 19.37675 04 53 04.98 +20 25 38.1          24   R      675
    SK00S080  C2001 09 20.44765 04 53 07.62 +20 25 35.5                      675
    SK00S080  C2001 09 20.45591 04 53 07.61 +20 25 35.8                      675
    SK00S080  C2001 09 20.49846 04 53 07.73 +20 25 35.3          24   R      675
    SK00S080  C2001 09 20.50674 04 53 07.72 +20 25 35.2                      675
    SK00S100  C2001 08 24.54571 04 50 52.72 +21 19 25.4          23.2 R      568
    SK00S100  C2001 08 24.56580 04 50 52.98 +21 19 25.7          23.2 R      568
    SK00S100  C2001 08 24.58853 04 50 53.33 +21 19 26.0          23.6 R      568
    SK00S100  C2001 09 19.39932 04 54 41.35 +21 22 47.7                      675
    SK00S100  C2001 09 19.44142 04 54 41.45 +21 22 47.6          23.1 R      675
    SK00S100  C2001 09 19.47078 04 54 41.54 +21 22 47.5          23.2 R      675

Observer details:
568 Mauna Kea.  Observer J. Kavalaars.  Measurer J.-M. Petit.  3.6-m
    Canada-France-Hawaii Telescope + CCD.
675 Palomar.  Observers P. Nicholson, C. Dumas, A. Harris.  Measurer
    B. Gladman.  5-m Hale reflector + CCD.

Orbital elements:
S/2000 S 8
Epoch 2001 Oct. 18.0 TT = JDT 2452200.5                 Marsden
M  76.91155              (2000.0)            P               Q
n   0.50103889     Peri.  207.64737     +0.14527958     +0.85351278
a   0.1034235      Node   285.50739     +0.97626698     -0.04155986
e   0.2117209      Incl.  148.71370     +0.16061331     -0.51941190
P   1.97           H   14.2           P/d   718.51
Residuals in seconds of arc
K009N  568  0.1+  0.2-    K00B4  309  0.0   0.1+    K011L  675  0.1+  0.0
K009N  568  0.2-  0.1-    K00BR  675  0.0   0.1+    K019J  675  0.4+  1.2-
K009N  568  0.2-  0.2-    K00BR  675  0.2+  0.2-    K019K  675  0.0   0.2+
K009O  568  0.1+  0.1+    K00CI  695  0.3-  0.3+    K019K  675  0.4-  0.6+
K009O  568  0.2+  0.0     K00CI  695  0.3-  0.3+    K019K  675  0.2+  0.2+
K009O  568  0.0   0.1+    K00CI  695  0.1-  0.1-    K019K  675  0.2-  0.2+
K00B4  309  0.0   0.0     K011L  675  0.4+  0.4-

S/2000 S 10
Epoch 2001 Oct. 18.0 TT = JDT 2452200.5                 Marsden
M 210.08040              (2000.0)            P               Q
n   0.40576657     Peri.  290.50996     +0.25496039     -0.88998984
a   0.1190372      Node   138.09421     +0.95282042     +0.29783277
e   0.6093181      Incl.   34.47206     -0.16470714     +0.34527339
P   2.43           H   13.6           P/d   887.21
Residuals in seconds of arc
K009N  568  0.0   0.2-    K00BR  675  0.2+  0.2+    K011J  675  0.4+  0.3-
K009N  568  0.0   0.3-    K00BR  675  0.0   0.0     K018O  568  0.1+  0.2+
K009N  568  0.0   0.2-    K00BR  675  0.1-  0.1-    K018O  568  0.2-  0.1+
K009O  568  0.3+  0.1+    K00CG  695  0.6-  0.7+    K018O  568  0.2+  0.1-
K009O  568  0.3+  0.0     K00CG  695  0.7-  0.5+    K019J  675  0.1+  0.1-
K009O  568  0.2+  0.0     K00CG  695  0.4-  0.7+    K019J  675  0.1-  0.1-
K00BO  809  0.3-  0.3-    K00CH  695  0.3-  0.4+    K019J  675  0.2+  0.2-
K00BO  809  0.4+  0.3-    K011J  675  0.5+  0.3-
K00BO  809  0.1-  0.2-    K011J  675  0.1-  0.3-

Ephemerides:
    S/2000 S 8                                                   q = 0.0815
Date    TT    R. A. (2000) Decl.     Delta     r_S   dR.A. ("/m)  dDecl.m1"/')
2001 09 28    04 53.20   +20 24.8    8.682    0.099  1964-/2.33-  1304-/ 21.7-
2001 10 08    04 52.63   +20 22.9    8.523    0.101  2057-/2.44-  1305-/ 21.7-
2001 10 18    04 51.32   +20 20.1    8.379    0.103  2133-/2.53-  1295-/ 21.6-
2001 10 28    04 49.32   +20 16.5    8.255    0.105  2194-/2.60-  1275-/ 21.3-
2001 11 07    04 46.74   +20 12.3    8.155    0.107  2237-/2.65-  1244-/ 20.7-
2001 11 17    04 43.69   +20 07.6    8.082    0.109  2264-/2.68-  1202-/ 20.0-
2001 11 27    04 40.33   +20 02.7    8.040    0.110  2275-/2.69-  1149-/ 19.1-
2001 12 07    04 36.88   +19 57.9    8.029    0.112  2269-/2.68-  1084-/ 18.1-
2001 12 17    04 33.50   +19 53.6    8.049    0.114  2245-/2.65-  1009-/ 16.8-
2001 12 27    04 30.42   +19 50.2    8.101    0.115  2205-/2.60-   923-/ 15.4-
2002 01 06    04 27.79   +19 48.0    8.181    0.116  2147-/2.54-   829-/ 13.8-
2002 01 16    04 25.76   +19 47.3    8.286    0.118  2073-/2.45-   727-/ 12.1-
2002 01 26    04 24.45   +19 48.4    8.412    0.119  1984-/2.34-   619-/ 10.3-
2002 02 05    04 23.91   +19 51.4    8.554    0.120  1879-/2.22-   507-/  8.5-
2002 02 15    04 24.17   +19 56.2    8.708    0.121  1761-/2.08-   393-/  6.5-
2002 02 25    04 25.24   +20 02.8    8.868    0.122  1630-/1.93-   276-/  4.6-
2002 03 07    04 27.09   +20 10.9    9.029    0.123  1488-/1.76-   160-/  2.7-
2002 03 17    04 29.66   +20 20.4    9.187    0.124  1336-/1.58-    45-/  0.8-
2002 03 27    04 32.90   +20 30.9    9.337    0.124  1175-/1.39-    67+/  1.1+
2002 04 06    04 36.73   +20 42.2    9.477    0.125  1006-/1.20-   177+/  3.0+
2002 04 16    04 41.08   +20 53.8    9.602    0.125   831-/0.99-   283+/  4.7+
2002 04 26    04 45.86   +21 05.5    9.710    0.125   650-/0.77-   385+/  6.4+

    S/2000 S 10                                                  q = 0.0465
Date    TT    R. A. (2000) Decl.     Delta     r_S   dR.A. ("/m)  dDecl. ("/')
2001 09 28    04 54.81   +21 22.0    8.517    0.190   596-/0.71-  2129+/ 35.5+
2001 10 08    04 54.22   +21 19.9    8.368    0.189   709-/0.85-  2116+/ 35.3+
2001 10 18    04 52.85   +21 16.5    8.233    0.188   839-/1.00-  2094+/ 34.9+
2001 10 28    04 50.75   +21 12.1    8.118    0.187   984-/1.17-  2060+/ 34.3+
2001 11 07    04 48.03   +21 06.6    8.027    0.185  1139-/1.36-  2015+/ 33.6+
2001 11 17    04 44.82   +21 00.2    7.964    0.184  1301-/1.55-  1956+/ 32.6+
2001 11 27    04 41.29   +20 53.2    7.930    0.182  1461-/1.74-  1884+/ 31.4+
2001 12 07    04 37.64   +20 46.0    7.928    0.181  1615-/1.92-  1800+/ 30.0+
2001 12 17    04 34.07   +20 38.9    7.958    0.179  1756-/2.09-  1707+/ 28.4+
2001 12 27    04 30.79   +20 32.4    8.019    0.177  1878-/2.23-  1606+/ 26.8+
2002 01 06    04 27.98   +20 26.8    8.109    0.175  1978-/2.35-  1500+/ 25.0+
2002 01 16    04 25.77   +20 22.7    8.223    0.172  2054-/2.43-  1393+/ 23.2+
2002 01 26    04 24.29   +20 20.2    8.359    0.170  2106-/2.50-  1287+/ 21.5+
2002 02 05    04 23.59   +20 19.5    8.510    0.167  2137-/2.53-  1184+/ 19.7+
2002 02 15    04 23.71   +20 20.8    8.673    0.164  2147-/2.54-  1085+/ 18.1+
2002 02 25    04 24.63   +20 23.9    8.842    0.161  2142-/2.54-   991+/ 16.5+
2002 03 07    04 26.33   +20 28.6    9.011    0.158  2123-/2.52-   902+/ 15.0+
2002 03 17    04 28.76   +20 34.8    9.177    0.155  2094-/2.49-   818+/ 13.6+
2002 03 27    04 31.85   +20 42.1    9.335    0.151  2059-/2.45-   738+/ 12.3+
2002 04 06    04 35.52   +20 50.2    9.482    0.147  2018-/2.40-   662+/ 11.0+
2002 04 16    04 39.71   +20 58.9    9.614    0.144  1976-/2.35-   589+/  9.8+
2002 04 26    04 44.34   +21 07.7    9.728    0.139  1932-/2.30-   518+/  8.6+

Brian G. Marsden             (C) Copyright 2001 MPC           M.P.E.C. 2001-T23

Read MPEC 2001-T22 Read MPEC 2001-T24


Our Web policy. Index to the CBAT/MPC/ICQ pages.


Valid HTML 4.01!